Weather History for Rotterdam, Netherlands

Change the Weather History Date:

Monday, May 16, 2011

  Actual Average Record
Temperature  
Mean Temperature 54 °F -  
Max Temperature 59 °F 64 °F 82 °F (2000)
Min Temperature 50 °F 49 °F 33 °F (2005)
Degree Days  
Heating Degree Days 10    
Growing Degree Days 4 (Base 50)    
Moisture  
Dew Point 51 °F    
Average Humidity 83    
Maximum Humidity 100    
Minimum Humidity 64    
Precipitation  
Precipitation 0.12 in - - ()
Sea Level Pressure  
Sea Level Pressure 30.14 in    
Wind  
Wind Speed 12 mph ()    
Max Wind Speed 18 mph    
Max Gust Speed 28 mph    
Visibility 6.1 miles    
Events Rain    
Averages and records for this station are not official NWS values.
T = Trace of Precipitation, MM = Missing Value Source: Averaged Metar Reports

Daily Weather History Graph

Daily Weather History Graph

Search for Another Location

Airport:

Trip Planner

Search our weather history database for the weather conditions in past years. The results will help you decide how hot, cold, wet, or windy it might be!

Date:

Astronomy

May. 16, 2011 Rise Set
Actual Time 5:47 AM CEST 9:30 PM CEST
Civil Twilight 5:05 AM CEST 10:12 PM CEST
Nautical Twilight 4:07 AM CEST 11:11 PM CEST
Astronomical Twilight 2:35 AM CEST 12:47 AM CEST
Moon 8:46 PM CEST (5/16) 4:44 AM CEST (5/16)
Length of Visible Light 17h 07m
Length of Day
15h 42m
Waxing Gibbous, 98% of the Moon is Illuminated
May 16
Waxing Gibbous
May 17
Full
May 24
Last Quarter
Jun 1
New
Jun 9
First Quarter

Hourly Weather History & Observations

Time (CEST) Temp. Dew Point Humidity Pressure Visibility Wind Dir Wind Speed Gust Speed Precip Events Conditions
12:25 AM 53.6 °F 46.4 °F 77% 30.21 in 6.2 mi WSW 8.1 mph - N/A   Scattered Clouds
12:55 AM 53.6 °F 46.4 °F 77% 30.21 in 6.2 mi WSW 6.9 mph - N/A   Overcast
1:25 AM 53.6 °F 44.6 °F 72% 30.21 in 6.2 mi WSW 9.2 mph - N/A   Overcast
1:55 AM 53.6 °F 44.6 °F 72% 30.18 in 6.2 mi WSW 10.4 mph - N/A   Overcast
2:00 AM 54 °F 45 °F 64% 30.20 in 19 mi WSW 8.9 mph - -   Overcast
2:25 AM 55.4 °F 46.4 °F 72% 30.18 in 6.2 mi WSW 11.5 mph - N/A   Overcast
2:55 AM 55.4 °F 46.4 °F 72% 30.18 in 6.2 mi WSW 11.5 mph - N/A   Overcast
3:25 AM 55.4 °F 46.4 °F 72% 30.18 in 6.2 mi WSW 11.5 mph - N/A   Overcast
3:55 AM 55.4 °F 46.4 °F 72% 30.18 in 6.2 mi WSW 11.5 mph - N/A   Overcast
4:25 AM 55.4 °F 48.2 °F 77% 30.15 in 6.2 mi WSW 15.0 mph - N/A   Overcast
4:55 AM 55.4 °F 48.2 °F 77% 30.15 in 6.2 mi WSW 13.8 mph - N/A   Overcast
5:00 AM 56 °F 48 °F 68% 30.16 in 15 mi WSW 13.4 mph - -   Overcast
5:25 AM 55.4 °F 48.2 °F 77% 30.15 in 6.2 mi WSW 15.0 mph - N/A   Overcast
5:55 AM 55.4 °F 48.2 °F 77% 30.15 in 6.2 mi WSW 15.0 mph - N/A   Overcast
6:25 AM 55.4 °F 50.0 °F 82% 30.12 in 6.2 mi WSW 15.0 mph - N/A   Overcast
6:55 AM 53.6 °F 50.0 °F 88% 30.15 in - West 13.8 mph - N/A   Heavy Drizzle
7:25 AM 53.6 °F 51.8 °F 94% 30.12 in 5.6 mi WSW 16.1 mph - N/A   Drizzle
7:55 AM 53.6 °F 51.8 °F 94% 30.12 in 6.2 mi WSW 13.8 mph - N/A Rain Light Rain
8:00 AM 54 °F 52 °F 90% 30.15 in 4 mi WSW 13.4 mph - - Rain Heavy Rain
8:25 AM 53.6 °F 51.8 °F 94% 30.12 in 1.5 mi West 12.7 mph - N/A Rain Light Rain
8:55 AM 53.6 °F 53.6 °F 100% 30.12 in 1.7 mi West 12.7 mph - N/A   Heavy Drizzle
9:25 AM 53.6 °F 53.6 °F 100% 30.12 in 1.3 mi West 12.7 mph - N/A   Heavy Drizzle
9:55 AM 53.6 °F 53.6 °F 100% 30.15 in 1.2 mi West 12.7 mph - N/A   Drizzle
10:25 AM 55.4 °F 53.6 °F 94% 30.15 in - WSW 13.8 mph - N/A   Heavy Drizzle
10:55 AM 53.6 °F 53.6 °F 100% 30.15 in 1.4 mi West 13.8 mph - N/A Rain Rain
11:00 AM 55 °F 54 °F 93% 30.17 in 1 mi West 13.4 mph - - Rain Rain
11:25 AM 55.4 °F 53.6 °F 94% 30.15 in 1.6 mi West 15.0 mph - N/A Rain Drizzle
11:55 AM 55.4 °F 53.6 °F 94% 30.15 in - West 12.7 mph - N/A   Mostly Cloudy
12:25 PM 57.2 °F 53.6 °F 88% 30.15 in 6.2 mi WSW 15.0 mph - N/A   Overcast
12:55 PM 55.4 °F 51.8 °F 88% 30.15 in 3.7 mi West 17.3 mph - N/A   Mostly Cloudy
1:25 PM 57.2 °F 53.6 °F 88% 30.15 in 6.2 mi WSW 15.0 mph - N/A   Overcast
1:55 PM 57.2 °F 53.6 °F 88% 30.15 in 6.2 mi West 15.0 mph - N/A   Light Drizzle
2:00 PM 56 °F 53 °F 87% 30.17 in 8 mi West 15.7 mph - - Rain Light Rain Showers
2:25 PM 57.2 °F 53.6 °F 88% 30.15 in 6.2 mi WSW 15.0 mph - N/A   Mostly Cloudy
2:55 PM 57.2 °F 53.6 °F 88% 30.15 in 6.2 mi WSW 15.0 mph - N/A   Overcast
3:25 PM 57.2 °F 53.6 °F 88% 30.15 in 6.2 mi WSW 16.1 mph - N/A   Light Drizzle
3:55 PM 57.2 °F 53.6 °F 88% 30.15 in 6.2 mi WSW 16.1 mph - N/A   Mostly Cloudy
4:25 PM 59.0 °F 53.6 °F 82% 30.15 in 6.2 mi WSW 18.4 mph - N/A   Mostly Cloudy
4:55 PM 59.0 °F 53.6 °F 82% 30.15 in 6.2 mi WSW 18.4 mph - N/A   Partly Cloudy
5:00 PM 59 °F 53 °F 75% 30.16 in 10 mi WSW 17.9 mph - -   Overcast
5:25 PM 59.0 °F 53.6 °F 82% 30.15 in 6.2 mi WSW 16.1 mph - N/A   Overcast
5:55 PM 59.0 °F 51.8 °F 77% 30.12 in 6.2 mi West 17.3 mph - N/A   Mostly Cloudy
6:25 PM 59.0 °F 51.8 °F 77% 30.12 in 6.2 mi West 16.1 mph - N/A   Overcast
6:55 PM 59.0 °F 51.8 °F 77% 30.12 in 6.2 mi WSW 17.3 mph - N/A   Overcast
7:25 PM 59.0 °F 51.8 °F 77% 30.12 in 6.2 mi WSW 16.1 mph 27.6 mph N/A   Partly Cloudy
7:55 PM 57.2 °F 51.8 °F 82% 30.12 in 6.2 mi WSW 15.0 mph - N/A   Partly Cloudy
8:00 PM 58 °F 52 °F 76% 30.13 in 9 mi WSW 15.7 mph - -   Partly Cloudy
8:25 PM 57.2 °F 51.8 °F 82% 30.12 in 6.2 mi WSW 13.8 mph - N/A   Scattered Clouds
8:55 PM 57.2 °F 51.8 °F 82% 30.12 in 6.2 mi WSW 17.3 mph - N/A   Overcast
9:25 PM 57.2 °F 51.8 °F 82% 30.12 in 6.2 mi SW 12.7 mph - N/A   Overcast
9:55 PM 57.2 °F 51.8 °F 82% 30.09 in 6.2 mi SW 11.5 mph - N/A   Overcast
10:25 PM 57.2 °F 51.8 °F 82% 30.09 in 6.2 mi SW 13.8 mph - N/A   Partly Cloudy
10:55 PM 57.2 °F 51.8 °F 82% 30.09 in 6.2 mi SW 13.8 mph - N/A Rain Light Drizzle
11:00 PM 57 °F 52 °F 76% 30.12 in 9 mi SW 15.7 mph - - Rain Light Drizzle
11:25 PM 57.2 °F 51.8 °F 82% 30.09 in 6.2 mi SW 16.1 mph - N/A   Partly Cloudy
11:55 PM 57.2 °F 51.8 °F 82% 30.09 in 6.2 mi SW 13.8 mph - N/A   Unknown